This is the latest recevied weather packets stored in our database for station/object WA3NOA-2. If no packets are shown the sender has not sent any weather packets the latest 10 day(s).
| Time | Temp. | Humidity | Pressure | Rain* | Wind** | Luminosity | Snow |
|---|---|---|---|---|---|---|---|
| 1777655526 | 15.56° C | 45% | 1006.1 hPa | 0 mm | - | - | - |
| 1777655226 | 16.67° C | 43% | 1006.1 hPa | 0 mm | - | - | - |
| 1777654988 | 15.56° C | 45% | 1006.2 hPa | 0 mm | - | - | - |
| 1777654927 | 15.56° C | 44% | 1006.2 hPa | 0 mm | - | - | - |
| 1777654627 | 15.56° C | 44% | 1006.2 hPa | 0 mm | - | - | - |
| 1777654327 | 16.11° C | 47% | 1006.2 hPa | 0 mm | - | - | - |
| 1777654088 | 15.56° C | 53% | 1006.2 hPa | 0 mm | - | - | - |
| 1777654027 | 15° C | 49% | 1006.3 hPa | 0 mm | - | - | - |
| 1777653727 | 14.44° C | 51% | 1006.5 hPa | 0 mm | - | - | - |
| 1777653427 | 14.44° C | 45% | 1006.6 hPa | 0 mm | - | - | - |
| 1777653188 | 15° C | 48% | 1006.7 hPa | 0 mm | - | - | - |
| 1777653127 | 15.56° C | 44% | 1006.6 hPa | 0 mm | - | - | - |
| 1777652827 | 16.11° C | 46% | 1006.7 hPa | 0 mm | - | - | - |
| 1777652527 | 16.11° C | 47% | 1006.8 hPa | 0 mm | - | - | - |
| 1777652288 | 15.56° C | 47% | 1006.7 hPa | 0 mm | - | - | - |
| 1777652227 | 15° C | 51% | 1006.7 hPa | 0 mm | - | - | - |
| 1777651927 | 15.56° C | 51% | 1006.8 hPa | 0 mm | - | - | - |
| 1777651627 | 15.56° C | 50% | 1006.8 hPa | 0 mm | - | - | - |
| 1777651388 | 15.56° C | 46% | 1006.8 hPa | 0 mm | - | - | - |
| 1777651327 | 15.56° C | 47% | 1006.8 hPa | 0 mm | - | - | - |
| 1777651027 | 15.56° C | 53% | 1006.9 hPa | 0 mm | - | - | - |
| 1777650727 | 15° C | 48% | 1007.1 hPa | 0 mm | - | - | - |
| 1777650488 | 15° C | 49% | 1007.1 hPa | 0 mm | - | - | - |
| 1777650427 | 15° C | 48% | 1007.1 hPa | 0 mm | - | - | - |
| 1777650127 | 15.56° C | 52% | 1007.2 hPa | 0 mm | - | - | - |
* Rain latest hour (hover to see other rain measurements)
** Current wind speed in m/s (hover to see current wind gust speed)